Regional Weather Roundup
Issued by NWS

Home | Current Version | Previous Version | Text Only | Print | Product List | Glossary On
Versions: 1 2 3 4 5 6 7 8 9 10 11 12 13 14 15 16 17 18 19 20 21 22 23 24 25 26 27 28 29 30 31 32 33 34 35 36 37 38 39 40 41 42 43 44 45 46 47 48 49 50
000
ASUS43 KMKX 150400
RWRWI

WISCONSIN REGIONAL WEATHER ROUNDUP
NATIONAL WEATHER SERVICE MILWAUKEE/SULLIVAN WI
1100 PM CDT SUN SEP 14 2014

NOTE: "FAIR" INDICATES FEW OR NO CLOUDS BELOW 12,000 FEET WITH NO
SIGNIFICANT WEATHER AND/OR OBSTRUCTIONS TO VISIBILITY.

WIZ001-002-006>008-014>016-023>028-150500-
NORTHWEST WISCONSIN

CITY           SKY/WX    TMP DP  RH WIND       PRES   REMARKS
SUPERIOR ARPT  CLEAR     42  41  97 CALM      30.11R
ASHLAND        CLEAR     42  41  96 SW5       30.10S
HAYWARD        PTCLDY    41  40  96 CALM      30.12R
SIREN          MOCLDY    44  42  94 CALM      30.13R
RICE LAKE      MOCLDY    47  45  90 CALM      30.14R
LADYSMITH      MOCLDY    46  43  89 CALM      30.13R
EAU CLAIRE     CLOUDY    51  43  74 SW5       30.13R
MENOMONIE      CLOUDY    53  45  74 W5        30.13R
NEW RICHMOND   MOCLDY    50  44  81 CALM      30.14R
OSCEOLA        MOCLDY    48  48 100 CALM      30.16R
$$

WIZ003>005-009-010-017-018-150500-
NORTH CENTRAL WISCONSIN

CITY           SKY/WX    TMP DP  RH WIND       PRES   REMARKS
WOODRUFF       PTCLDY    44  42  91 CALM      30.09R
RHINELANDER    PTCLDY    44  41  89 W5        30.10S
EAGLE RIVER    PTCLDY    41  40  98 CALM      30.08S
LAND O LAKES   PTCLDY    41  39  93 CALM      30.09S
PHILLIPS       PTCLDY    42  42  99 CALM      30.10R
TOMAHAWK       MOCLDY    41  40  95 CALM      30.11S
MEDFORD        CLOUDY    47  44  89 CALM      30.11R
MERRILL        CLOUDY    47  45  91 W3        30.10S
$$

WIZ029-030-035-036-043>047-150500-
CENTRAL WISCONSIN

CITY           SKY/WX    TMP DP  RH WIND       PRES   REMARKS
WAUSAU         CLOUDY    52  44  74 NW5       30.09R
MOSINEE        CLOUDY    52  43  71 NW6       30.11S
MARSHFIELD     CLOUDY    51  44  77 W5        30.11R
STEVENS POINT  CLOUDY    54  46  73 W3        30.11R
WAUPACA        CLOUDY    57  52  82 CALM      30.11S
WAUTOMA        NOT AVBL
WISC RAPIDS    CLOUDY    55  51  86 SW5       30.13R
CAMP DOUGLAS   CLOUDY    55  55 100 W5        30.13R
$$

WIZ011>013-019>022-031-037>040-048>050-150500-
NORTHEAST WISCONSIN

CITY           SKY/WX    TMP DP  RH WIND       PRES   REMARKS
ANTIGO         MOCLDY    49  44  81 NW3       30.10R
STURGEON BAY   MOCLDY    55  48  76 SW7       30.09S
GREEN BAY      MOCLDY    55  51  86 W3        30.10S
MANITOWOC      NOT AVBL
APPLETON       MOCLDY    57  48  72 SW7       30.11S
CLINTONVILLE   CLOUDY    54  48  82 SW5       30.10R
OSHKOSH        CLOUDY    57  49  74 SW8       30.11S
$$

WIZ032>034-041-042-053>061-150500-
SOUTHWEST WISCONSIN

CITY           SKY/WX    TMP DP  RH WIND       PRES   REMARKS
LA CROSSE      CLOUDY    59  52  77 N3        30.13R
SPARTA         CLOUDY    55  53  92 CALM      30.14R
VIROQUA        FAIR      55  50  83 W3        30.14R
BOSCOBEL       PTCLDY    52  48  86 SW3       30.15S
PRAIRIE DU CHI PTCLDY    51  48  90 CALM      30.14S
PLATTEVILLE    FAIR      53  49  84 CALM      30.17S
$$

WIZ056-057-062-063-064-067-068-150500-
SOUTH CENTRAL WISCONSIN

CITY           SKY/WX    TMP DP  RH WIND       PRES   REMARKS
BARABOO/DELLS  MOCLDY    57  47  69 SW9       30.13R
LONE ROCK      NOT AVBL
WATERTOWN      PTCLDY    52  47  85 CALM      30.15R
MADISON        PTCLDY    57  47  69 SW3       30.15S
MIDDLETON      FAIR      56  46  69 SW7       30.15S
MONROE         MOCLDY    54  46  76 SW8       30.16S
JANESVILLE     MOCLDY    54  46  76 CALM      30.16S
$$

WIZ051-052-058>065-066-070>072-150500-
SOUTHEAST WISCONSIN

CITY           SKY/WX    TMP DP  RH WIND       PRES   REMARKS
MILWAUKEE      PTCLDY    55  45  68 S6        30.16S
WAUKESHA       PTCLDY    52  45  76 SW6       30.17R
MILWAUKEE/TIMM PTCLDY    54  43  66 SW7       30.16S
RACINE         PTCLDY    55  46  71 SW7       30.18S
BURLINGTON     PTCLDY    46  45  97 S3        30.17S
KENOSHA        PTCLDY    53  47  79 SW7       30.18R
FOND DU LAC    CLOUDY    57  47  69 SW10      30.12S
SHEBOYGAN      MOCLDY    54  47  77 SW7       30.13S
WEST BEND      MOCLDY    54  45  71 SW5       30.15R
JUNEAU         MOCLDY    54  47  79 S7        30.15S
$$

LSZ147-162-150500-
LAKE SUPERIOR

STATION/POSITION TIME  TEMP    WIND        PRES    WAVE
                       AIR SEA DIR/SP/G            HT/PER
                 (UTC) (F)     (DEG/KT/KT) (MB)    (FT/S)
W MID LAKE BUOY  0250   50 47  270/ 14/ 16 1017.5R   2/ 4
DEVILS ISLAND    0300   53     270/ 11/ 12 1018.7R
PORT WING        0340   50     190/  6/  7 1019.3R
SAXON HARBOR     0300   51     200/  5/  8 1018.6S
$$

LMZ867-665-643>646-150500-
LAKE MICHIGAN

STATION/POSITION TIME  TEMP    WIND        PRES    WAVE
                       AIR SEA DIR/SP/G            HT/PER
                 (UTC) (F)     (DEG/KT/KT) (MB)    (FT/S)
N MID LAKE BUOY  0250   58 58  220/ 16/ 17 1017.9R   6/ 7
NORTHPORT PIER   0300   55     190/  3/  9 1017.9F
KEWAUNEE LAKESHO 0300   57     220/  7/  9 1018.0F
SHEBOYGAN LAKESH 0300   58 51  210/ 11/ 12 1020.5R
PORT WASHINGTON  0300   56     240/  4/  6 1021.0
MILWAUKEE LAKESH 0300   59     240/  6/  7   N/A
S MID LAKE BUOY  0250   63 65  200/ 12/ 14 1021.9R   1/ 3
KENOSHA   LAKESH 0300   58     220/  6/  8 1021.3S
$$

TC  - TEMPERATURE IN CELSIUS
VSB - VISIBILITY IN STATUTE MILES
WCI - WIND CHILL INDEX
HX  - HEAT INDEX




USA.gov is the U.S. government's official web portal to all federal, state and local government web resources and services.